Flag for United Kingdom Weather past 2 weeks in Cardiff, Wales, United Kingdom

Now
45 °F

Mostly cloudy.


Feels Like: 40 °F
Forecast: N/A
Wind: 9 mph from Northwest

Location: Wales Airport

Current Time: Jan 26, 2015 at 4:55:02 PM

Latest Report: Jan 26, 2015 at 4:20 PM


Visibility: N/A

Pressure: 30.33 "Hg

Humidity: 81%

Dew point: 39 °F

Location of CardiffLocation

Historic Weather in Cardiff — Graph

°F

Cardiff temperature yesterday

Maximum temperature yesterday: 48 °F (at 8:20 PM)
Minimum temperature yesterday: 37 °F (at 12:50 AM)
Average temperature yesterday: 45 °F

Past Weeks' High & Low Weather Summary

 TemperatureHumidityPressure
High52 °F (Jan 12, 10:50 AM)100% (Jan 12, 11:50 AM)30.51 "Hg (Jan 12, 11:50 AM)
Low28 °F (Jan 23, 6:20 AM)57% (Jan 19, 12:50 PM)29.03 "Hg (Jan 15, 12:50 AM)
Average41 °F88%29.89 "Hg
* Reported Jan 11 3:20 PM — Jan 26 3:50 PM, Cardiff, Weather by CustomWeather, © 2014

Note: Actual official high and low records may vary slightly from our data, if they occured in-between our weather recording intervals... More about our weather records

Advertising

Cardiff weather history for previous 24 hours

 ConditionsComfort  
Time TempWeatherWind HumidityBarometerVisibility
3:50 PM
Jan 26
45 °FBroken clouds.13 mph81%30.33 "HgN/A
3:20 PM45 °FOvercast.10 mph76%30.33 "HgN/A
2:50 PM46 °FMostly cloudy.15 mph71%30.30 "HgN/A
2:20 PM46 °FPartly sunny.14 mph71%30.30 "HgN/A
1:50 PM46 °FPartly sunny.15 mph76%30.30 "HgN/A
1:20 PM46 °FOvercast.10 mph76%30.30 "HgN/A
12:50 PM46 °FOvercast.14 mph76%30.30 "HgN/A
12:20 PM46 °FOvercast.14 mph76%30.30 "HgN/A
11:50 AM46 °FOvercast.13 mph76%30.30 "HgN/A
11:20 AM46 °FPartly sunny.14 mph76%30.30 "HgN/A
10:50 AM46 °FScattered clouds.14 mph76%30.30 "HgN/A
10:20 AM46 °FScattered clouds.13 mph82%30.27 "HgN/A
9:50 AM45 °FScattered clouds.12 mph87%30.27 "HgN/A
9:20 AM45 °FQuite cool.14 mph87%30.24 "HgN/A
8:50 AM46 °FPassing clouds.13 mph87%30.24 "HgN/A
8:20 AM46 °FCool.15 mph93%30.21 "HgN/A
7:50 AM46 °FCool.13 mph100%30.21 "HgN/A
7:20 AM46 °FPassing clouds.12 mph100%30.21 "HgN/A
6:50 AM48 °FLow clouds.16 mph100%30.18 "HgN/A
6:20 AM48 °FFog.16 mph100%30.18 "Hg2 mi
5:50 AM48 °FDrizzle. Low clouds.21 mph100%30.18 "Hg1 mi
5:20 AM48 °FDrizzle. Low clouds.17 mph100%30.18 "Hg2 mi
4:50 AM48 °FLight rain. Low clouds.17 mph100%30.18 "HgN/A
4:20 AM48 °FRain. Mostly cloudy.16 mph94%30.21 "Hg3 mi
3:50 AM48 °FHeavy rain. Mostly cloudy.15 mph94%30.21 "Hg2 mi
3:20 AM48 °FRain. Mostly cloudy.16 mph94%30.21 "HgN/A
2:50 AM48 °FLow clouds.16 mph94%30.21 "HgN/A
2:20 AM48 °FLow clouds.15 mph94%30.24 "HgN/A
1:50 AM48 °FDrizzle. Low clouds.14 mph100%30.24 "Hg5 mi
1:20 AM48 °FRain. Low clouds.15 mph100%30.24 "Hg3 mi
12:50 AM48 °FLow clouds.14 mph94%30.24 "HgN/A
12:20 AM48 °FMostly cloudy.10 mph94%30.27 "HgN/A
11:50 PM
Jan 25
48 °FMostly cloudy.10 mph100%30.27 "HgN/A
11:20 PM48 °FMostly cloudy.13 mph94%30.30 "HgN/A
10:50 PM48 °FMostly cloudy.15 mph94%30.30 "HgN/A
10:20 PM48 °FLow clouds.15 mph100%30.30 "HgN/A
9:20 PM48 °FLow clouds.13 mph94%30.30 "Hg4 mi
8:50 PM48 °FLow clouds.12 mph94%30.33 "HgN/A
8:20 PM48 °FLow clouds.9 mph94%30.33 "HgN/A
7:50 PM46 °FLow clouds.10 mph100%30.33 "HgN/A
7:20 PM46 °FLow clouds.9 mph100%30.33 "HgN/A
6:50 PM46 °FLow clouds.10 mph100%30.33 "HgN/A
6:20 PM46 °FDrizzle. Low clouds.10 mph100%30.36 "Hg2 mi
5:50 PM46 °FLow clouds.10 mph100%30.36 "HgN/A
5:20 PM46 °FLow clouds.9 mph100%30.36 "HgN/A
4:50 PM46 °FDrizzle. Low clouds.10 mph93%30.36 "Hg3 mi
4:20 PM46 °FLow clouds.6 mph93%30.36 "HgN/A
Weather by CustomWeather, © 2014

See weather overviewHow to use our weather pages